TimeEDT,TemperatureF,Dew PointF,Humidity,Sea Level PressureIn,VisibilityMPH,Wind Direction,Wind SpeedMPH,Gust SpeedMPH,PrecipitationIn,Events,Conditions,WindDirDegrees,DateUTC
12:53 AM,66.0,60.1,81,30.00,10.0,Calm,Calm,-,N/A,,Overcast,0,2013-06-16 04:53:00
1:53 AM,66.0,60.1,81,29.98,10.0,Calm,Calm,-,N/A,,Overcast,0,2013-06-16 05:53:00
2:53 AM,64.9,60.1,84,29.98,9.0,Calm,Calm,-,0.00,Rain,Light Rain,0,2013-06-16 06:53:00
3:53 AM,64.0,61.0,90,29.95,8.0,SSE,3.5,-,0.02,Rain,Light Rain,150,2013-06-16 07:53:00
4:53 AM,63.0,60.1,90,29.94,8.0,SE,6.9,-,0.01,,Overcast,140,2013-06-16 08:53:00
5:53 AM,63.0,60.1,90,29.94,7.0,SE,4.6,-,N/A,,Clear,130,2013-06-16 09:53:00
6:53 AM,64.9,60.1,84,29.95,5.0,Variable,3.5,-,0.01,Rain,Light Rain,0,2013-06-16 10:53:00
7:53 AM,66.0,63.0,90,29.94,9.0,SW,4.6,-,0.05,,Overcast,230,2013-06-16 11:53:00
8:53 AM,66.9,63.0,87,29.93,8.0,SSW,3.5,-,0.00,Rain,Light Rain,210,2013-06-16 12:53:00
9:53 AM,66.9,63.0,87,29.94,9.0,Variable,5.8,-,0.01,,Mostly Cloudy,0,2013-06-16 13:53:00
10:53 AM,68.0,63.0,84,29.93,10.0,Variable,4.6,-,0.00,,Overcast,0,2013-06-16 14:53:00
11:50 AM,68.0,64.4,88,29.96,5.0,WSW,8.1,16.1,0.01,Rain,Light Rain,240,2013-06-16 15:50:00
11:53 AM,68.0,64.0,87,29.95,6.0,WSW,9.2,16.1,0.01,Rain,Light Rain,240,2013-06-16 15:53:00
12:13 PM,69.8,64.4,83,29.95,10.0,WSW,10.4,20.7,0.00,,Overcast,250,2013-06-16 16:13:00
12:53 PM,71.1,64.0,78,29.94,10.0,WSW,8.1,-,0.00,,Mostly Cloudy,240,2013-06-16 16:53:00
1:40 PM,73.4,64.4,73,29.95,10.0,West,11.5,17.3,N/A,,Mostly Cloudy,260,2013-06-16 17:40:00
1:53 PM,73.9,64.0,71,29.93,10.0,WSW,8.1,-,N/A,,Overcast,240,2013-06-16 17:53:00
2:09 PM,73.4,64.4,73,29.94,10.0,Variable,6.9,20.7,N/A,,Overcast,0,2013-06-16 18:09:00
2:38 PM,73.4,62.6,69,29.95,10.0,WSW,10.4,17.3,N/A,,Overcast,250,2013-06-16 18:38:00
2:53 PM,73.9,64.0,71,29.94,10.0,WSW,9.2,16.1,N/A,,Overcast,250,2013-06-16 18:53:00
3:01 PM,73.4,62.6,69,29.95,10.0,West,8.1,17.3,N/A,,Overcast,260,2013-06-16 19:01:00
3:53 PM,73.0,64.0,73,29.94,10.0,SW,6.9,-,N/A,,Overcast,230,2013-06-16 19:53:00
4:53 PM,73.9,64.0,71,29.94,10.0,SW,8.1,-,N/A,,Overcast,220,2013-06-16 20:53:00
5:53 PM,75.0,64.0,69,29.92,10.0,WSW,8.1,-,N/A,,Partly Cloudy,240,2013-06-16 21:53:00
6:53 PM,75.0,64.0,69,29.92,10.0,SSW,3.5,-,N/A,,Mostly Cloudy,210,2013-06-16 22:53:00
7:53 PM,73.9,64.0,71,29.93,10.0,Calm,Calm,-,N/A,,Scattered Clouds,0,2013-06-16 23:53:00
8:53 PM,72.0,64.0,76,29.94,10.0,Calm,Calm,-,0.01,,Overcast,0,2013-06-17 00:53:00
9:53 PM,70.0,64.0,81,29.95,10.0,Calm,Calm,-,N/A,,Clear,0,2013-06-17 01:53:00
10:53 PM,71.1,64.0,78,29.95,10.0,South,4.6,-,N/A,,Scattered Clouds,190,2013-06-17 02:53:00
11:53 PM,70.0,64.9,84,29.95,10.0,Calm,Calm,-,N/A,,Scattered Clouds,0,2013-06-17 03:53:00